Terug naar catalogus

STARLINK-31464

ActiefCommunicatieVLEO
NORAD 59318·PAYLOAD·🇺🇸 United States

Gelanceerd Mar 24, 2024 vanaf Cape Canaveral Space Force Station

Loading…

Volgende Passages (komende 24 uur)

TLE

VersSource: CelesTrak SupGP

Epoch: Sep 14, 2026, 22:31 UTC

1 59318C 24056Y   26257.93868056  .00027904  00000+0  10107-2 0  2579
2 59318  43.0002 241.7542 0001352 262.0187 309.9657 15.27562804    19

Volg STARLINK-31464 in realtime met AllMySat

Download on the App Store